This demonstration page uses our WeatherBlox Daily Observations layout. Learn more.

Left ArrowRight Arrow

41.55636, -103.73856

Hourly Observations for July 23, 2020

Temp ( °F °C ) Dew Point ( °F °C ) Humidity (%) Winds ( mph kmh ) Pressure ( in mb ) Visibility ( mi km ) Precip ( " mm )
6:58 pm 18:58 Clear 85 29.6 54 12.4 35 35 SE 9 15 29.83 1010 10 16 0.00 0.00
7:58 pm 19:58 Mostly Clear 81 27 57 14.1 45 45 SE 9 15 29.84 1010 10 16 0.00 0.00
8:58 pm 20:58 Mostly Cloudy 81 27.1 60 15.8 50 50 SE 16 26 29.83 1010 10 16 0.00 0.00
9:58 pm 21:58 Mostly Clear 77 25.1 60 15.8 56 56 ESE 17 28 29.82 1010 10 16 0.00 0.00
10:58 pm 22:58 Clear 76 24.4 60 15.5 58 58 S 15 24 29.85 1011 10 16 0.00 0.00
11:58 pm 23:58 Mostly Cloudy 73 22.9 57 13.7 56 56 SSE 3 6 29.83 1010 10 16 0.00 0.00
12:58 am 00:58 Mostly Cloudy 72 22.1 59 14.8 63 63 Calm 29.83 1010 10 16 0.00 0.00
1:58 am 01:58 Mostly Cloudy 68 20 60 15.3 74 74 SW 6 9 29.83 1010 10 16 0.00 0.00
2:58 am 02:58 Mostly Cloudy 69 20.8 59 14.8 69 69 S 7 11 29.83 1010 10 16 0.00 0.00
3:58 am 03:58 Mostly Cloudy 68 20.2 58 14.7 71 71 SW 6 9 29.82 1010 10 16 0.00 0.00
4:58 am 04:58 Mostly Cloudy 66 19 57 14 73 73 SSW 7 11 29.83 1010 10 16 0.00 0.00
5:58 am 05:58 Mostly Cloudy 71 21.4 52 11.1 52 52 NW 5 7 29.84 1011 10 16 0.00 0.00
6:58 am 06:58 Mostly Sunny 70 21.2 51 10.8 52 52 W 9 15 29.85 1011 10 16 0.00 0.00
7:58 am 07:58 Mostly Sunny 76 24.3 48 9.1 38 38 W 10 17 29.86 1011 10 16 0.00 0.00
8:58 am 08:58 Sunny 82 27.8 46 7.8 28 28 NW 13 20 29.86 1011 10 16 0.00 0.00
9:58 am 09:58 Sunny 85 29.3 44 6.8 24 24 NW 12 19 29.86 1011 10 16 0.00 0.00
10:58 am 10:58 Sunny 86 30 43 6.3 22 22 W 5 7 29.86 1011 10 16 0.00 0.00
11:58 am 11:58 Sunny 89 31.8 41 4.8 18 18 WNW 3 6 29.85 1011 10 16 0.00 0.00
1:58 pm 13:58 Mostly Cloudy 91 32.7 38 3.2 15 15 Calm 29.83 1010 10 16 0.00 0.00
2:58 pm 14:58 Mostly Cloudy 92 33.3 39 3.9 16 16 SSW 8 13 29.81 1010 10 16 0.00 0.00
3:58 pm 15:58 Mostly Cloudy 94 34.3 38 3.6 14 14 WSW 9 15 29.80 1009 10 16 0.00 0.00
4:58 pm 16:58 Mostly Cloudy 94 34.3 40 4.3 15 15 SSE 12 19 29.78 1009 10 16 0.00 0.00
5:58 pm 17:58 Mostly Sunny 90 32.1 43 6 19 19 S 15 24 29.78 1009 10 16 0.00 0.00

Powered by AerisWeather